Home   Weather   Malabo   Past weeks

Flag for Equatorial Guinea Past Weather in Malabo, Equatorial Guinea — Yesterday and Last 2 Weeks

77 °F

Thunderstorms. Passing clouds.

Feels Like: 78 °F
Forecast: 77 / 86 °F
Wind: 6 mph from Southwest

Location: Malabo/Fernando Poo

Current Time: Oct 26, 2016 at 5:16:31 AM

Latest Report: Oct 26, 2016 at 4:00 AM

Visibility: N/A

Pressure: 29.77 "Hg

Humidity: 94%

Dew Point: 75 °F

Location of MalaboLocation

Past Weather in Malabo — Graph


Malabo Temperature Yesterday

Maximum temperature yesterday: 86 °F (at 11:00 AM)
Minimum temperature yesterday: 75 °F (at 2:00 AM)
Average temperature yesterday: 79 °F

High & Low Weather Summary for the Past Weeks

High86 °F (Oct 12, 11:00 AM)100% (Oct 22, 7:00 AM)29.98 "Hg (Oct 22, 7:00 AM)
Low72 °F (Oct 22, 3:00 AM)66% (Oct 17, 2:00 PM)29.74 "Hg (Oct 24, 4:00 PM)
Average79 °F86%29.88 "Hg
* Reported Oct 11 4:00 AM — Oct 26 4:00 AM, Malabo, Weather by CustomWeather, © 2016

Note: Actual official high and low records may vary slightly from our data, if they occured in-between our weather recording intervals... More about our weather records


Malabo Weather History for the Previous 24 Hours

Scroll right to see more
Time TempWeatherWind HumidityBarometerVisibility
4:00 AM
Wed, Oct 26
77 °FThunderstorms. Passing clouds.6 mph94%29.77 "HgN/A
3:00 AM77 °FThunderstorms. Passing clouds.5 mph94%29.77 "HgN/A
2:00 AM79 °FThunderstorms. Passing clouds.8 mph89%29.77 "HgN/A
1:00 AM77 °FThunderstorms. Passing clouds.7 mph94%29.80 "HgN/A
12:00 AM77 °FPassing clouds.7 mph89%29.83 "HgN/A
11:00 PM
Tue, Oct 25
77 °FThunderstorms. Passing clouds.3 mph89%29.86 "HgN/A
10:00 PM77 °FThunderstorms. Passing clouds.3 mph89%29.83 "HgN/A
9:00 PM77 °FPassing clouds.1 mph94%29.83 "HgN/A
8:00 PM79 °FPassing clouds.6 mph89%29.80 "HgN/A
7:00 PM79 °FPassing clouds.5 mph89%29.80 "HgN/A
6:00 PM79 °FPartly sunny.8 mph89%29.77 "Hg5 mi
5:00 PM79 °FThunderstorms. Broken clouds.8 mph94%29.74 "Hg5 mi
4:00 PM79 °FThunderstorms. Broken clouds.8 mph89%29.74 "Hg5 mi
3:00 PM79 °FThunderstorms. Partly sunny.9 mph89%29.77 "Hg5 mi
2:00 PM82 °FThunderstorms. Partly sunny.7 mph84%29.77 "Hg5 mi
1:00 PM82 °FThunderstorms. Broken clouds.8 mph84%29.80 "HgN/A
12:00 PM86 °FThunderstorms. Scattered clouds.6 mph75%29.83 "HgN/A
11:00 AM86 °FThunderstorms. Passing clouds.3 mph75%29.89 "Hg5 mi
10:00 AM82 °FThunderstorms. Passing clouds.3 mph79%29.86 "Hg5 mi
9:00 AM79 °FThunderstorms. Passing clouds.2 mph89%29.86 "HgN/A
8:00 AM77 °FThunderstorms. Passing clouds.3 mph89%29.83 "HgN/A
7:00 AM77 °FThunderstorms. Passing clouds.5 mph89%29.80 "HgN/A
6:00 AM75 °FThunderstorms. Passing clouds.5 mph94%29.80 "HgN/A
5:00 AM77 °FThunderstorms. Passing clouds.3 mph89%29.77 "HgN/A
Weather by CustomWeather, © 2016

See weather overviewHow to use our weather pages